Location: Newark
(25.6108°S, 54.5803°W)
Time: 08:53:25
(UTC+00:00)

Tiros 1 - Pass Details

Date: 02 November 2020
Orbit: 630 x 664 km, 48.4° (Epoch: 29 November)

Event Time Altitude Azimuth Distance (km) Brightness Sun altitude
Rises 00:44:03 0° 231° (SW) 3,011 11.6 -34.2°
Reaches altitude 10° 00:46:27 10° 235° (SW) 2,091 10.5 -34.6°
Enters shadow 00:48:26 24° 243° (WSW) 1,375 9.3 -34.9°
Maximum altitude 00:51:11 56° 312° (NW) 784 - -35.4°
Drops below altitude 10° 00:55:50 10° 30° (NNE) 2,055 - -36.1°
Sets 00:58:11 0° 34° (NE) 2,955 - -36.5°
